UPS8621 KDEN-KOKC

Flight info

Callsign UPS8621
Flight time 1h 13m
Altitude 33000
Route EPKEE7 DUUZE DCT ROLLS CAMET3
Aircraft A306/H-SDE3FGHIRWY/LB1

Departure

Time 2026-04-10 21:00
Airport Denver International Airport (KDEN)

Arrival

Time 2026-04-10 22:14
Airport OKC Will Rogers World Airport (KOKC)
Time Latitude Longitude Altitude Speed Heading
2026-04-10 20:38 39.82933 -104.67874 5396 ft 0 kts 180°
2026-04-10 20:46 39.82950 -104.67875 5387 ft 2 kts 179°
2026-04-10 20:46 39.82966 -104.67878 5392 ft 2 kts 173°
2026-04-10 20:46 39.82982 -104.67883 5392 ft 2 kts 159°
2026-04-10 20:46 39.82997 -104.67892 5390 ft 2 kts 143°
2026-04-10 20:47 39.83009 -104.67907 5386 ft 2 kts 120°
2026-04-10 20:47 39.83015 -104.67927 5388 ft 2 kts 95°
2026-04-10 20:47 39.83015 -104.67936 5390 ft 0 kts 91°
2026-04-10 20:48 39.83015 -104.67935 5390 ft 2 kts 91°
2026-04-10 20:48 39.83012 -104.67843 5386 ft 17 kts 92°
2026-04-10 20:49 39.83007 -104.67702 5389 ft 14 kts 93°
2026-04-10 20:49 39.83004 -104.67591 5393 ft 10 kts 90°
2026-04-10 20:49 39.83003 -104.67535 5397 ft 9 kts 90°
2026-04-10 20:49 39.83003 -104.67439 5398 ft 13 kts 90°
2026-04-10 20:50 39.83001 -104.67326 5399 ft 24 kts 91°
2026-04-10 20:50 39.82941 -104.67077 5396 ft 34 kts 97°
2026-04-10 20:50 39.82934 -104.66726 5422 ft 44 kts 91°
2026-04-10 20:50 39.82936 -104.66330 5443 ft 36 kts 78°
2026-04-10 20:51 39.82979 -104.66267 5442 ft 3 kts
2026-04-10 20:51 39.82986 -104.66266 5443 ft 0 kts
2026-04-10 20:52 39.82985 -104.66266 5443 ft 0 kts
2026-04-10 20:55 39.82995 -104.66266 5441 ft 8 kts
2026-04-10 20:55 39.83132 -104.66263 5440 ft 30 kts
2026-04-10 20:55 39.83409 -104.66264 5435 ft 49 kts
2026-04-10 20:56 39.83773 -104.66260 5422 ft 52 kts 359°
2026-04-10 20:56 39.84119 -104.66258 5413 ft 48 kts
2026-04-10 20:56 39.84440 -104.66251 5412 ft 45 kts
2026-04-10 20:56 39.84744 -104.66251 5411 ft 42 kts
2026-04-10 20:57 39.85032 -104.66243 5402 ft 41 kts 359°
2026-04-10 20:57 39.85313 -104.66240 5399 ft 39 kts 359°
2026-04-10 20:57 39.85578 -104.66239 5395 ft 37 kts
2026-04-10 20:57 39.85831 -104.66233 5392 ft 36 kts
2026-04-10 20:58 39.86043 -104.66231 5389 ft 18 kts
2026-04-10 20:58 39.86102 -104.66173 5391 ft 8 kts 62°
2026-04-10 20:58 39.86106 -104.66083 5391 ft 12 kts 89°
2026-04-10 20:58 39.86096 -104.66022 5391 ft 2 kts 135°
2026-04-10 20:59 39.86085 -104.66021 5383 ft 6 kts 173°
2026-04-10 20:59 39.85863 -104.66019 5388 ft 61 kts 181°
2026-04-10 20:59 39.85256 -104.66025 5400 ft 111 kts 181°
2026-04-10 20:59 39.84333 -104.66039 5416 ft 153 kts 180°
2026-04-10 21:00 39.83128 -104.66056 5447 ft 193 kts 183°
2026-04-10 21:00 39.81754 -104.66044 5942 ft 201 kts 180°
2026-04-10 21:00 39.80340 -104.65728 6474 ft 216 kts 153°
2026-04-10 21:00 39.79147 -104.64423 6618 ft 241 kts 125°
2026-04-10 21:01 39.78236 -104.62409 6621 ft 274 kts 118°
2026-04-10 21:01 39.77287 -104.60213 6634 ft 279 kts 120°
2026-04-10 21:01 39.76419 -104.57859 6879 ft 298 kts 110°
2026-04-10 21:01 39.75782 -104.55277 7228 ft 310 kts 109°
2026-04-10 21:02 39.75109 -104.52543 7557 ft 323 kts 109°
2026-04-10 21:02 39.74398 -104.49701 7839 ft 335 kts 109°
2026-04-10 21:02 39.73665 -104.46791 8204 ft 342 kts 109°
2026-04-10 21:02 39.72937 -104.43862 8861 ft 340 kts 111°
2026-04-10 21:03 39.72198 -104.40919 9355 ft 344 kts 111°
2026-04-10 21:03 39.71449 -104.37939 9815 ft 349 kts 111°
2026-04-10 21:03 39.70687 -104.34923 10244 ft 353 kts 111°
2026-04-10 21:03 39.69919 -104.31882 10711 ft 356 kts 111°
2026-04-10 21:04 39.69145 -104.28819 11161 ft 358 kts 111°
2026-04-10 21:04 39.68363 -104.25728 11611 ft 361 kts 111°
2026-04-10 21:04 39.67577 -104.22629 12057 ft 364 kts 111°
2026-04-10 21:04 39.66779 -104.19495 12469 ft 367 kts 111°
2026-04-10 21:05 39.66039 -104.16586 12870 ft 369 kts 111°
2026-04-10 21:05 39.65231 -104.13406 13319 ft 371 kts 111°
2026-04-10 21:05 39.64420 -104.10212 13778 ft 373 kts 111°
2026-04-10 21:05 39.63606 -104.07009 14184 ft 375 kts 111°
2026-04-10 21:06 39.62786 -104.03782 14581 ft 378 kts 111°
2026-04-10 21:06 39.61972 -104.00578 14978 ft 380 kts 111°
2026-04-10 21:06 39.61142 -103.97318 15369 ft 382 kts 111°
2026-04-10 21:06 39.60303 -103.94038 15715 ft 385 kts 111°
2026-04-10 21:07 39.59458 -103.90724 16073 ft 388 kts 111°
2026-04-10 21:07 39.58611 -103.87388 16441 ft 391 kts 111°
2026-04-10 21:07 39.57758 -103.84023 16817 ft 393 kts 111°
2026-04-10 21:07 39.56898 -103.80649 17170 ft 396 kts 111°
2026-04-10 21:08 39.56024 -103.77244 17544 ft 398 kts 111°
2026-04-10 21:08 39.55143 -103.73832 17908 ft 401 kts 111°
2026-04-10 21:08 39.54250 -103.70389 18252 ft 404 kts 111°
2026-04-10 21:08 39.53350 -103.66924 18565 ft 407 kts 111°
2026-04-10 21:09 39.52441 -103.63430 18876 ft 410 kts 111°
2026-04-10 21:09 39.51531 -103.59928 19177 ft 412 kts 111°
2026-04-10 21:09 39.50627 -103.56448 19489 ft 414 kts 111°
2026-04-10 21:09 39.49708 -103.52910 19804 ft 416 kts 110°
2026-04-10 21:10 39.48781 -103.49344 20116 ft 418 kts 111°
2026-04-10 21:10 39.47852 -103.45778 20426 ft 420 kts 111°
2026-04-10 21:10 39.46915 -103.42188 20721 ft 422 kts 111°
2026-04-10 21:10 39.45969 -103.38573 21008 ft 424 kts 111°
2026-04-10 21:11 39.45018 -103.34941 21289 ft 426 kts 111°
2026-04-10 21:11 39.44063 -103.31299 21563 ft 428 kts 111°
2026-04-10 21:11 39.43100 -103.27631 21851 ft 430 kts 111°
2026-04-10 21:11 39.42135 -103.23959 22122 ft 432 kts 111°
2026-04-10 21:12 39.41164 -103.20265 22373 ft 434 kts 111°
2026-04-10 21:12 39.40202 -103.16611 22617 ft 436 kts 111°
2026-04-10 21:12 39.39210 -103.12848 22877 ft 438 kts 111°
2026-04-10 21:12 39.38237 -103.09159 23097 ft 440 kts 111°
2026-04-10 21:13 39.37244 -103.05403 23346 ft 442 kts 111°
2026-04-10 21:13 39.36250 -103.01641 23574 ft 443 kts 111°
2026-04-10 21:13 39.35250 -102.97860 23794 ft 445 kts 111°
2026-04-10 21:13 39.34245 -102.94066 23989 ft 446 kts 111°
2026-04-10 21:14 39.33241 -102.90275 24165 ft 448 kts 111°
2026-04-10 21:14 39.32230 -102.86463 24338 ft 449 kts 111°
2026-04-10 21:14 39.31216 -102.82645 24518 ft 450 kts 111°
2026-04-10 21:15 39.29179 -102.74981 24869 ft 452 kts 111°
2026-04-10 21:15 39.28154 -102.71128 25044 ft 453 kts 111°
2026-04-10 21:15 39.27128 -102.67276 25216 ft 455 kts 111°
2026-04-10 21:15 39.26097 -102.63407 25391 ft 456 kts 111°
2026-04-10 21:16 39.25064 -102.59536 25546 ft 457 kts 111°
2026-04-10 21:16 39.24029 -102.55659 25720 ft 458 kts 111°
2026-04-10 21:16 39.22993 -102.51779 26001 ft 456 kts 111°
2026-04-10 21:16 39.21961 -102.47916 26252 ft 455 kts 111°
2026-04-10 21:17 39.20945 -102.44112 26474 ft 455 kts 111°
2026-04-10 21:17 39.19913 -102.40252 26706 ft 455 kts 111°
2026-04-10 21:17 39.18883 -102.36400 26908 ft 454 kts 111°
2026-04-10 21:17 39.17854 -102.32551 27144 ft 454 kts 111°
2026-04-10 21:18 39.16821 -102.28694 27356 ft 454 kts 111°
2026-04-10 21:18 39.15792 -102.24847 27575 ft 454 kts 112°
2026-04-10 21:18 39.14761 -102.20997 27797 ft 454 kts 112°
2026-04-10 21:18 39.13729 -102.17144 28027 ft 454 kts 112°
2026-04-10 21:19 39.12716 -102.13358 28253 ft 454 kts 112°
2026-04-10 21:19 39.11684 -102.09507 28504 ft 454 kts 112°
2026-04-10 21:19 39.10656 -102.05669 28734 ft 454 kts 112°
2026-04-10 21:19 39.09626 -102.01823 28972 ft 453 kts 112°
2026-04-10 21:20 39.08598 -101.97989 29211 ft 453 kts 112°
2026-04-10 21:20 39.07581 -101.94198 29460 ft 453 kts 112°
2026-04-10 21:20 39.06553 -101.90363 29721 ft 453 kts 112°
2026-04-10 21:20 39.05524 -101.86527 29993 ft 453 kts 112°
2026-04-10 21:21 39.04494 -101.82689 30238 ft 453 kts 112°
2026-04-10 21:21 39.03466 -101.78858 30468 ft 453 kts 112°
2026-04-10 21:21 39.02439 -101.75032 30657 ft 453 kts 112°
2026-04-10 21:21 39.01408 -101.71193 30849 ft 454 kts 112°
2026-04-10 21:22 39.00376 -101.67355 31041 ft 455 kts 112°
2026-04-10 21:22 38.99345 -101.63518 31240 ft 455 kts 112°
2026-04-10 21:22 38.98308 -101.59666 31446 ft 456 kts 112°
2026-04-10 21:22 38.97270 -101.55811 31634 ft 456 kts 112°
2026-04-10 21:23 38.96232 -101.51957 31849 ft 457 kts 112°
2026-04-10 21:23 38.95193 -101.48100 32042 ft 457 kts 112°
2026-04-10 21:23 38.94153 -101.44241 32241 ft 458 kts 112°
2026-04-10 21:23 38.93109 -101.40372 32440 ft 458 kts 112°
2026-04-10 21:24 38.92069 -101.36516 32644 ft 459 kts 112°
2026-04-10 21:24 38.91020 -101.32629 32844 ft 459 kts 112°
2026-04-10 21:24 38.89974 -101.28753 33036 ft 460 kts 112°
2026-04-10 21:24 38.88753 -101.24983 33218 ft 457 kts 120°
2026-04-10 21:25 38.85167 -101.18393 33278 ft 446 kts 142°
2026-04-10 21:25 38.82751 -101.15938 33288 ft 436 kts 154°
2026-04-10 21:25 38.80120 -101.14117 33286 ft 429 kts 162°
2026-04-10 21:26 38.74643 -101.11015 33285 ft 434 kts 163°
2026-04-10 21:26 38.69041 -101.07880 33284 ft 444 kts 162°
2026-04-10 21:27 38.63348 -101.04672 33278 ft 453 kts 162°
2026-04-10 21:27 38.57538 -101.01395 33280 ft 460 kts 162°
2026-04-10 21:28 38.51625 -100.98064 33277 ft 466 kts 162°
2026-04-10 21:28 38.45648 -100.94700 33275 ft 472 kts 162°
2026-04-10 21:29 38.39603 -100.91306 33276 ft 476 kts 162°
2026-04-10 21:29 38.33510 -100.87891 33277 ft 480 kts 162°
2026-04-10 21:30 38.27378 -100.84460 33275 ft 482 kts 162°
2026-04-10 21:30 38.22270 -100.81607 33273 ft 482 kts 162°
2026-04-10 21:31 38.16136 -100.78186 33267 ft 481 kts 162°
2026-04-10 21:31 38.10005 -100.74774 33262 ft 481 kts 162°
2026-04-10 21:32 38.03863 -100.71362 33256 ft 481 kts 162°
2026-04-10 21:32 37.97728 -100.67961 33255 ft 481 kts 162°
2026-04-10 21:33 37.91641 -100.64592 33258 ft 481 kts 162°
2026-04-10 21:33 37.85500 -100.61200 33256 ft 481 kts 162°
2026-04-10 21:34 37.79375 -100.57823 33257 ft 480 kts 162°
2026-04-10 21:34 37.73234 -100.54442 33252 ft 480 kts 161°
2026-04-10 21:35 37.67099 -100.51072 33247 ft 480 kts 162°
2026-04-10 21:35 37.60970 -100.47710 33238 ft 480 kts 161°
2026-04-10 21:36 37.54847 -100.44359 33231 ft 480 kts 161°
2026-04-10 21:36 37.48755 -100.41030 33224 ft 480 kts 161°
2026-04-10 21:37 37.42618 -100.37683 33216 ft 480 kts 161°
2026-04-10 21:37 37.36488 -100.34345 33212 ft 480 kts 161°
2026-04-10 21:38 37.30344 -100.31006 33210 ft 480 kts 161°
2026-04-10 21:38 37.24218 -100.27682 33199 ft 480 kts 161°
2026-04-10 21:39 37.18090 -100.24364 33187 ft 480 kts 161°
2026-04-10 21:39 37.11962 -100.21051 33181 ft 480 kts 161°
2026-04-10 21:40 37.05820 -100.17736 33184 ft 480 kts 161°
2026-04-10 21:40 36.99683 -100.14430 33171 ft 480 kts 161°
2026-04-10 21:41 36.93530 -100.11121 33165 ft 480 kts 161°
2026-04-10 21:41 36.87380 -100.07820 33158 ft 480 kts 161°
2026-04-10 21:42 36.81264 -100.04542 33148 ft 481 kts 161°
2026-04-10 21:42 36.75101 -100.01246 33135 ft 481 kts 161°
2026-04-10 21:43 36.68941 -99.97956 33134 ft 481 kts 161°
2026-04-10 21:43 36.62818 -99.94692 33127 ft 481 kts 161°
2026-04-10 21:44 36.56639 -99.91404 33132 ft 482 kts 161°
2026-04-10 21:44 36.50460 -99.88122 33138 ft 483 kts 160°
2026-04-10 21:45 36.44299 -99.84856 33146 ft 484 kts 160°
2026-04-10 21:45 36.38096 -99.81571 33157 ft 485 kts 160°
2026-04-10 21:46 36.31874 -99.78283 33033 ft 482 kts 160°
2026-04-10 21:46 36.28791 -99.76656 32680 ft 481 kts 160°
2026-04-10 21:46 36.25694 -99.75023 32316 ft 482 kts 160°
2026-04-10 21:47 36.22607 -99.73398 31483 ft 483 kts 160°
2026-04-10 21:47 36.19539 -99.71783 30597 ft 486 kts 160°
2026-04-10 21:47 36.16416 -99.70142 29637 ft 488 kts 160°
2026-04-10 21:47 36.13280 -99.68494 28614 ft 489 kts 160°
2026-04-10 21:48 36.10128 -99.66839 27577 ft 491 kts 160°
2026-04-10 21:48 36.06973 -99.65184 26518 ft 492 kts 159°
2026-04-10 21:48 36.03815 -99.63528 25638 ft 491 kts 159°
2026-04-10 21:48 36.00790 -99.61939 24928 ft 467 kts 159°
2026-04-10 21:49 35.97820 -99.60382 23612 ft 460 kts 159°
2026-04-10 21:49 35.94885 -99.58848 22222 ft 453 kts 159°
2026-04-10 21:49 35.92044 -99.57361 21438 ft 434 kts 160°
2026-04-10 21:49 35.89309 -99.55932 20576 ft 420 kts 159°
2026-04-10 21:50 35.86620 -99.54532 19914 ft 418 kts 160°
2026-04-10 21:50 35.83953 -99.53147 19495 ft 412 kts 160°
2026-04-10 21:50 35.81326 -99.51782 19055 ft 408 kts 160°
2026-04-10 21:50 35.78717 -99.50426 18586 ft 404 kts 159°
2026-04-10 21:51 35.76182 -99.48942 18038 ft 404 kts 151°
2026-04-10 21:51 35.74035 -99.46828 17754 ft 398 kts 134°
2026-04-10 21:51 35.72544 -99.44011 17522 ft 391 kts 113°
2026-04-10 21:51 35.71911 -99.40798 17198 ft 384 kts 97°
2026-04-10 21:52 35.71684 -99.37555 16965 ft 375 kts 94°
2026-04-10 21:52 35.71511 -99.34356 16478 ft 374 kts 94°
2026-04-10 21:52 35.71340 -99.31165 15975 ft 374 kts 94°
2026-04-10 21:52 35.71164 -99.27974 15520 ft 372 kts 94°
2026-04-10 21:53 35.70984 -99.24804 15096 ft 370 kts 94°
2026-04-10 21:53 35.70802 -99.21655 14685 ft 367 kts 94°
2026-04-10 21:53 35.70620 -99.18555 14274 ft 364 kts 95°
2026-04-10 21:53 35.70436 -99.15461 13870 ft 361 kts 94°
2026-04-10 21:54 35.70255 -99.12405 13441 ft 357 kts 95°
2026-04-10 21:54 35.70074 -99.09372 13039 ft 353 kts 95°
2026-04-10 21:54 35.69894 -99.06363 12609 ft 349 kts 95°
2026-04-10 21:54 35.69715 -99.03395 12202 ft 345 kts 95°
2026-04-10 21:55 35.69539 -99.00493 11807 ft 342 kts 96°
2026-04-10 21:55 35.69362 -98.97586 11415 ft 338 kts 96°
2026-04-10 21:55 35.69188 -98.94717 11147 ft 333 kts 96°
2026-04-10 21:55 35.69013 -98.91891 11345 ft 330 kts 96°
2026-04-10 21:56 35.68835 -98.89044 11712 ft 337 kts 95°
2026-04-10 21:56 35.68656 -98.86162 11922 ft 340 kts 95°
2026-04-10 21:56 35.68476 -98.83243 11959 ft 341 kts 95°
2026-04-10 21:56 35.68296 -98.80336 11967 ft 341 kts 95°
2026-04-10 21:57 35.68114 -98.77424 11962 ft 341 kts 95°
2026-04-10 21:57 35.67932 -98.74545 11972 ft 341 kts 96°
2026-04-10 21:57 35.67749 -98.71635 11968 ft 341 kts 95°
2026-04-10 21:57 35.67566 -98.68721 11961 ft 341 kts 95°
2026-04-10 21:58 35.67382 -98.65813 11964 ft 341 kts 95°
2026-04-10 21:58 35.67195 -98.62892 11962 ft 341 kts 95°
2026-04-10 21:58 35.67010 -98.59982 11969 ft 341 kts 95°
2026-04-10 21:58 35.66825 -98.57106 11973 ft 341 kts 95°
2026-04-10 21:59 35.66637 -98.54195 11974 ft 341 kts 95°
2026-04-10 21:59 35.66449 -98.51284 11970 ft 341 kts 96°
2026-04-10 21:59 35.66259 -98.48363 11954 ft 341 kts 96°
2026-04-10 21:59 35.66069 -98.45454 11976 ft 342 kts 96°
2026-04-10 22:00 35.65878 -98.42550 11980 ft 342 kts 96°
2026-04-10 22:00 35.65671 -98.39667 11979 ft 341 kts 98°
2026-04-10 22:00 35.65236 -98.36794 11868 ft 340 kts 104°
2026-04-10 22:00 35.64688 -98.33964 11618 ft 338 kts 105°
2026-04-10 22:01 35.64128 -98.31168 11377 ft 336 kts 105°
2026-04-10 22:01 35.63573 -98.28389 11186 ft 330 kts 105°
2026-04-10 22:01 35.63039 -98.25693 11047 ft 318 kts 105°
2026-04-10 22:01 35.62525 -98.23098 10915 ft 307 kts 105°
2026-04-10 22:02 35.62028 -98.20596 10792 ft 297 kts 106°
2026-04-10 22:02 35.61555 -98.18137 10620 ft 294 kts 105°
2026-04-10 22:02 35.61188 -98.15653 10388 ft 294 kts 98°
2026-04-10 22:02 35.61089 -98.13140 10147 ft 294 kts 94°
2026-04-10 22:03 35.61053 -98.10659 9915 ft 293 kts 94°
2026-04-10 22:03 35.61025 -98.08157 9627 ft 290 kts 93°
2026-04-10 22:03 35.61001 -98.05712 9466 ft 281 kts 94°
2026-04-10 22:03 35.60979 -98.03348 9336 ft 272 kts 93°
2026-04-10 22:04 35.60963 -98.01740 9238 ft 265 kts 94°
2026-04-10 22:04 35.60947 -97.99533 9100 ft 256 kts 93°
2026-04-10 22:04 35.60935 -97.97380 8952 ft 248 kts 93°
2026-04-10 22:04 35.60926 -97.95286 8752 ft 243 kts 93°
2026-04-10 22:05 35.60920 -97.93216 8492 ft 241 kts 93°
2026-04-10 22:05 35.60917 -97.91160 8184 ft 240 kts 93°
2026-04-10 22:05 35.60913 -97.89115 7888 ft 239 kts 93°
2026-04-10 22:05 35.60911 -97.87064 7511 ft 241 kts 94°
2026-04-10 22:06 35.60906 -97.84963 6983 ft 251 kts 93°
2026-04-10 22:06 35.60898 -97.82776 6458 ft 260 kts 93°
2026-04-10 22:06 35.60886 -97.80561 5878 ft 262 kts 94°
2026-04-10 22:06 35.60874 -97.78304 5305 ft 258 kts 93°
2026-04-10 22:07 35.60860 -97.76107 4777 ft 264 kts 93°
2026-04-10 22:07 35.60845 -97.73816 4210 ft 271 kts 93°
2026-04-10 22:07 35.60832 -97.71461 3656 ft 276 kts 92°
2026-04-10 22:08 35.60822 -97.66945 2998 ft 241 kts 93°
2026-04-10 22:08 35.60824 -97.64982 2985 ft 228 kts 93°
2026-04-10 22:08 35.60837 -97.63034 2979 ft 229 kts 93°
2026-04-10 22:08 35.60839 -97.61075 2992 ft 228 kts 95°
2026-04-10 22:09 35.60332 -97.59294 3282 ft 220 kts 130°
2026-04-10 22:09 35.59117 -97.58414 3194 ft 197 kts 172°
2026-04-10 22:09 35.57908 -97.58582 3415 ft 153 kts 188°
2026-04-10 22:09 35.56947 -97.58771 3260 ft 140 kts 184°
2026-04-10 22:10 35.55873 -97.58811 3103 ft 163 kts 179°
2026-04-10 22:10 35.54727 -97.58799 2977 ft 171 kts 178°
2026-04-10 22:10 35.53508 -97.58761 2858 ft 176 kts 179°
2026-04-10 22:10 35.52285 -97.58759 2830 ft 174 kts 178°
2026-04-10 22:11 35.51080 -97.58800 2799 ft 172 kts 181°
2026-04-10 22:11 35.49900 -97.58877 2669 ft 168 kts 180°
2026-04-10 22:11 35.48741 -97.58891 2529 ft 163 kts 176°
2026-04-10 22:11 35.47619 -97.58883 2359 ft 159 kts 178°
2026-04-10 22:12 35.46511 -97.58883 2193 ft 160 kts 177°
2026-04-10 22:12 35.45380 -97.58888 2083 ft 166 kts 179°
2026-04-10 22:12 35.44206 -97.58883 1985 ft 172 kts 178°
2026-04-10 22:12 35.43010 -97.58899 1784 ft 175 kts 179°
2026-04-10 22:13 35.41793 -97.58883 1528 ft 173 kts 179°
2026-04-10 22:13 35.40617 -97.58897 1345 ft 164 kts 178°
2026-04-10 22:13 35.39532 -97.58893 1298 ft 146 kts 179°
2026-04-10 22:13 35.38929 -97.58895 1300 ft 106 kts 179°
2026-04-10 22:14 35.38480 -97.58895 1298 ft 42 kts 180°